CAPE
0 nan 0 nan nan 0 0 nan nan nan nan nan nan nan nan nan nan nan nan nan nan nan nan nan nan nan nan nan nan nan 0 0 1 1 2 9 12 12 9 4 4 2 0 3 3 4 4 3 3 2 2 1 2 2 5 11 11 22 40 56 56 64 66 59 59 44 31 15 14 14 14 12 9 9 5 5 6 6 7 6 6 5 2 0 0 0
nan 0 nan nan nan nan nan nan nan nan nan nan nan nan nan nan nan nan nan nan nan nan nan nan nan nan nan nan 0 0 0 0 1 1 2 5 12 12 8 5 5 3 3 4 4 3 2 1 1 1 1 nan nan nan 0 2 2 9 27 46 46 63 61 54 54 37 28 23 7 7 7 7 8 8 9 12 12 12 11 10 10 6 3 1 1 1
nan 0 0 0 0 nan nan 0 0 0 0 nan nan nan nan nan 0 0 nan 0 0 nan nan nan nan nan nan nan 1 1 0 1 1 1 2 3 14 14 9 4 4 4 4 3 3 3 1 0 0 1 0 nan nan nan 0 0 0 2 9 22 22 39 45 35 35 18 15 13 4 4 4 3 4 4 6 10 12 12 11 9 9 6 3 2 2 4
nan 0 0 0 0 0 1 0 0 0 0 0 0 0 0 nan 0 0 0 nan nan 0 0 nan nan 0 nan nan 1 1 1 1 1 1 1 4 6 6 10 5 5 2 1 0 0 0 0 0 0 nan nan nan nan nan nan nan nan nan nan 2 2 9 6 3 3 1 3 2 2 2 2 2 2 2 5 8 8 8 6 5 5 4 3 3 3 4
nan 0 0 0 0 0 1 0 nan nan 0 0 0 0 nan nan 0 0 0 0 0 nan nan nan nan nan nan 0 0 0 1 2 1 1 1 2 3 3 11 5 5 1 1 1 1 1 1 0 0 1 1 0 nan nan nan nan nan nan nan nan nan nan nan nan nan nan 0 1 1 1 1 2 2 2 3 4 4 4 2 1 1 1 1 2 2 5
nan 0 0 0 0 nan 0 0 nan nan 0 nan nan nan nan nan 0 0 0 0 0 0 nan 0 0 nan nan 0 0 0 1 1 1 1 1 1 1 1 6 4 4 3 2 2 2 1 0 0 0 0 1 0 nan nan nan nan nan nan nan nan nan nan nan nan nan nan 0 0 1 1 2 2 2 2 2 3 3 3 2 1 1 1 0 0 0 3
nan nan 0 0 0 0 0 0 0 0 0 nan nan nan nan 0 0 0 0 0 0 nan nan 0 0 nan nan nan nan nan 0 1 1 1 0 0 1 1 3 5 5 4 3 4 4 2 0 1 1 1 1 0 nan nan nan nan nan nan nan nan nan nan 0 1 1 0 1 1 1 1 1 2 2 2 1 2 3 3 3 3 3 2 0 nan nan 0
nan nan nan nan nan nan nan nan 0 0 nan nan nan nan nan nan nan nan nan nan nan nan 0 nan nan nan nan nan nan nan nan nan nan nan 0 0 1 1 0 7 7 6 5 4 4 1 1 1 1 1 1 1 0 0 0 nan nan nan nan nan nan nan nan nan nan nan nan nan nan nan nan nan nan nan nan nan nan nan nan 0 0 0 nan nan nan nan
nan nan nan nan nan nan nan nan 1 1 0 nan nan nan nan nan nan nan nan nan nan nan nan nan nan nan nan nan nan nan nan 0 0 0 1 1 0 0 2 14 14 9 5 2 2 2 1 1 1 1 1 0 0 0 nan nan nan nan nan nan nan nan nan nan nan nan nan nan nan nan nan nan nan nan nan nan nan nan nan nan nan nan nan nan nan nan
nan nan nan nan nan nan nan nan nan nan nan 0 0 0 nan nan nan nan nan nan nan nan nan nan nan nan nan nan nan nan nan nan 1 1 2 nan 0 0 0 1 1 3 2 2 2 2 1 1 1 1 1 nan nan nan nan nan nan nan nan nan nan nan nan nan nan nan nan nan nan nan nan nan nan nan nan nan nan nan nan nan nan nan nan nan nan nan
nan nan nan nan nan nan nan nan nan nan nan nan nan nan nan nan nan nan nan nan nan nan nan nan nan nan nan nan nan nan nan nan nan nan 0 nan 0 0 nan nan nan nan 0 1 1 1 1 2 2 1 0 nan nan nan nan nan nan nan nan nan nan nan nan nan nan nan nan nan nan nan nan nan nan nan nan nan nan nan nan nan nan nan nan nan nan nan
nan nan nan nan nan nan nan nan nan nan nan nan nan nan nan nan nan nan nan nan nan nan nan nan nan nan nan nan nan nan nan nan nan nan nan nan 0 0 nan nan nan nan nan 1 1 0 1 1 1 nan nan nan nan nan nan nan nan nan nan nan nan nan nan nan nan nan nan nan nan nan nan nan nan nan nan nan nan nan nan nan nan nan nan nan nan nan
nan nan nan nan nan nan nan nan nan nan nan nan nan nan nan nan nan nan nan nan nan nan nan nan nan nan nan nan nan nan nan nan nan nan nan nan nan nan nan nan nan nan nan nan nan nan 3 1 1 nan nan nan nan nan nan nan nan nan nan nan nan nan nan nan nan nan nan nan nan nan nan nan nan nan nan nan nan nan nan nan nan nan nan nan nan nan
nan nan nan nan nan nan nan nan nan nan nan nan nan nan nan nan nan nan nan nan nan nan nan nan nan nan nan nan nan nan nan nan nan nan nan nan nan nan nan nan nan nan nan nan nan nan 0 nan nan nan nan nan nan nan nan nan nan nan nan nan nan nan nan nan nan nan nan nan nan nan nan nan nan nan nan nan nan nan nan nan nan nan nan nan nan nan
nan nan nan nan nan nan nan nan nan nan nan nan nan nan nan nan nan nan nan nan nan nan nan nan nan nan nan nan nan nan nan nan nan nan nan nan nan nan nan nan nan nan nan nan nan nan nan nan nan nan nan nan nan nan nan nan nan nan nan nan nan nan nan nan nan nan nan nan nan nan nan nan nan nan nan nan nan nan nan nan nan nan nan nan nan nan
nan nan nan nan nan nan nan nan nan nan nan nan nan nan nan nan nan nan nan nan nan nan nan nan nan nan nan nan nan nan nan nan nan nan nan nan nan nan nan nan nan nan nan nan nan nan nan nan nan nan nan nan nan nan nan nan nan nan nan nan nan nan nan nan nan nan nan nan nan nan nan nan nan nan nan nan nan nan nan nan nan nan nan nan nan nan
nan nan nan nan nan nan nan nan nan nan nan nan nan nan nan nan nan nan nan nan nan nan nan nan nan nan nan nan nan nan nan nan nan nan nan nan nan nan nan nan nan nan nan nan nan nan nan nan nan nan nan nan nan nan nan nan nan nan nan nan nan nan nan nan nan nan nan nan nan nan nan nan nan nan nan nan nan nan nan nan nan nan nan nan nan nan
nan nan nan nan nan nan nan nan nan nan nan nan nan nan nan nan nan nan nan nan nan nan nan nan nan nan nan nan nan nan nan nan nan nan nan nan nan nan nan nan nan nan nan nan nan nan nan nan nan nan nan 0 0 0 nan nan nan 1 nan nan nan nan nan nan nan nan nan nan nan nan nan nan nan nan nan nan nan nan nan nan nan nan nan nan nan nan
nan nan nan nan nan nan nan nan nan nan nan nan nan nan nan nan nan nan nan nan nan nan nan nan nan nan nan nan nan nan nan nan nan nan nan nan nan nan nan nan nan nan nan nan nan nan nan nan nan nan nan 0 1 1 1 2 2 3 2 1 1 0 nan nan nan nan nan nan nan nan nan nan nan nan nan nan nan nan nan nan nan nan nan nan nan nan
nan nan nan nan nan nan nan nan nan nan nan nan nan nan nan nan nan nan 0 nan nan nan nan nan nan nan nan nan nan nan nan nan nan nan nan nan nan nan nan nan nan nan nan nan nan nan nan nan nan 0 nan nan 2 2 3 4 4 5 6 5 5 3 1 0 0 0 nan nan nan nan nan nan nan nan nan nan nan nan nan nan nan nan nan nan nan nan
nan nan nan nan nan nan nan nan nan nan nan nan nan nan nan nan nan nan nan nan nan nan nan nan nan nan nan nan nan nan nan nan nan nan nan nan nan nan nan nan nan nan nan nan nan nan nan nan nan nan nan nan nan nan 5 6 6 7 9 9 9 6 4 2 2 1 1 0 0 0 nan nan nan nan nan nan nan nan nan nan nan nan nan nan nan nan
nan nan nan nan nan nan nan nan nan nan nan nan nan nan nan nan nan nan nan nan nan nan nan nan nan nan nan nan nan nan nan nan nan nan nan nan nan nan nan nan nan nan nan nan nan nan nan nan nan nan nan nan nan nan 1 4 4 9 10 12 12 12 7 5 5 3 2 2 2 2 1 1 nan nan nan nan nan nan nan nan nan nan nan nan nan nan
nan nan nan nan nan nan nan nan nan nan nan nan nan nan nan nan nan nan nan nan nan nan nan nan nan nan nan nan nan nan nan nan nan nan nan nan nan nan nan nan nan nan nan nan nan nan nan nan nan nan nan nan nan nan nan 1 1 5 7 10 10 12 11 9 9 6 5 5 4 4 4 2 1 1 0 nan nan nan nan nan nan nan nan nan nan nan
nan nan nan nan nan nan nan nan nan nan nan nan nan nan nan nan nan nan nan nan nan nan nan nan nan nan nan nan nan nan nan nan nan nan nan nan nan nan nan nan nan nan nan nan nan nan nan nan nan nan nan nan nan nan nan nan nan 0 3 8 8 9 11 15 15 11 9 7 8 8 7 5 3 3 2 1 0 0 nan nan nan nan nan nan nan nan
nan nan nan nan nan nan nan nan nan nan nan nan nan nan nan nan nan nan nan nan nan nan nan nan nan nan nan nan nan nan nan nan nan nan nan nan nan nan nan nan nan nan nan nan nan nan nan nan nan nan nan nan nan nan nan 0 0 0 1 4 4 7 10 11 11 13 14 12 12 12 10 9 5 5 4 2 1 1 0 nan nan nan nan nan nan nan
nan nan nan nan nan nan nan nan nan nan nan nan nan nan nan nan nan nan nan nan nan nan nan nan nan nan nan nan nan nan nan nan nan nan nan nan nan nan nan nan nan nan nan nan nan nan nan nan nan nan nan nan nan nan nan nan nan nan 1 1 1 3 5 9 9 13 17 17 17 17 14 12 9 9 6 3 2 2 1 0 0 nan nan nan nan nan
nan nan nan nan nan 1 2 4 5 5 2 nan nan nan nan nan nan nan nan nan nan nan nan nan nan nan nan nan nan nan nan nan nan nan nan nan nan nan nan nan nan nan nan nan nan nan nan nan nan nan nan nan nan nan nan nan nan nan 0 0 0 1 3 6 6 12 14 17 20 20 17 16 13 13 9 6 4 4 2 1 1 nan nan nan nan nan
0 1 1 1 1 1 1 1 2 2 3 3 1 1 nan nan nan nan nan nan nan nan nan nan nan nan nan nan nan nan nan nan nan nan nan nan nan nan nan nan nan nan nan nan nan nan nan nan nan nan nan nan nan nan nan nan nan nan nan nan nan 1 2 3 3 8 14 17 19 19 20 18 17 17 12 8 7 7 4 3 3 1 0 nan nan nan
2 2 2 1 1 1 1 2 1 1 1 3 4 4 nan nan nan nan nan nan nan nan nan nan nan nan nan nan nan nan nan nan nan nan nan nan nan nan nan nan nan nan nan nan nan nan nan nan nan nan nan nan nan nan nan nan nan nan nan nan nan nan nan 2 2 4 8 15 15 15 19 19 18 18 16 12 8 8 7 5 5 4 nan nan nan nan
nan nan nan nan nan nan nan nan nan nan 0 0 nan nan nan nan nan nan nan nan nan nan nan nan nan nan nan nan nan nan nan nan nan nan nan nan nan nan nan nan nan nan nan nan nan nan nan nan nan nan nan nan nan nan nan nan nan nan nan nan nan nan nan nan nan 1 4 7 11 11 15 16 19 19 18 14 10 10 9 7 7 2 nan nan nan nan
nan nan nan nan nan nan nan nan nan nan nan nan nan nan nan nan nan nan nan nan nan nan nan nan nan nan nan nan nan nan nan nan nan nan nan nan nan nan nan nan nan nan nan nan nan nan nan nan nan nan nan nan nan nan nan nan nan nan nan nan nan nan nan nan nan nan nan 0 2 2 5 12 19 19 17 16 15 15 12 12 12 nan nan nan nan nan
nan nan nan nan nan nan nan nan nan nan nan nan nan nan nan nan nan nan nan nan nan nan nan nan nan nan nan nan nan nan nan nan nan nan nan nan nan nan nan nan nan nan nan nan nan nan nan nan nan nan nan nan nan nan nan nan nan nan nan nan nan nan nan nan nan nan nan nan nan nan nan nan nan nan 2 11 16 16 19 19 19 18 nan nan nan nan
nan nan nan nan nan nan nan nan nan nan nan nan nan nan nan nan nan nan nan nan nan nan nan nan nan nan nan nan nan nan nan nan nan nan nan nan nan nan nan nan nan nan nan nan nan nan nan nan nan nan nan nan nan nan nan nan nan nan nan nan nan nan nan nan nan nan nan nan nan nan nan nan nan nan nan 0 8 8 20 21 21 24 0 nan nan nan
nan nan nan nan nan nan nan nan nan nan nan nan nan nan nan nan nan nan nan nan nan nan nan nan nan nan nan nan nan nan nan nan nan nan nan nan nan nan nan nan nan nan nan nan nan nan nan nan nan nan nan nan nan nan nan nan nan nan nan nan nan nan nan nan nan nan nan nan nan nan nan nan nan nan nan nan nan nan 8 18 18 21 26 nan nan nan
nan nan nan nan nan nan nan nan nan nan nan nan nan nan nan nan nan nan nan nan nan nan nan nan nan nan nan nan nan nan nan nan nan nan nan nan nan nan nan nan nan nan nan nan nan nan nan nan nan nan nan nan nan nan nan nan nan nan nan nan nan nan nan nan nan nan nan nan nan nan nan nan nan nan nan nan nan nan 0 11 11 21 24 12 12 nan
nan nan nan nan nan nan nan nan nan nan nan nan nan nan nan nan nan nan nan nan nan nan nan nan nan nan nan nan nan nan nan nan nan nan nan nan nan nan nan nan nan nan nan nan nan nan nan nan nan nan nan nan nan nan nan nan nan nan nan nan nan nan nan nan nan nan nan nan nan nan nan nan nan nan nan nan nan nan nan 4 4 13 17 15 15 4
nan nan nan nan nan nan nan nan nan nan nan nan nan nan nan nan nan nan nan nan nan nan nan nan nan nan nan nan nan nan nan nan nan nan nan nan nan nan nan nan nan nan nan nan nan nan nan nan nan nan nan nan nan nan nan nan nan nan nan nan nan nan nan nan nan nan nan nan nan nan nan nan nan nan nan nan nan nan nan 0 0 1 9 9 9 10
nan nan nan nan nan nan nan nan nan nan nan nan nan nan nan nan nan nan nan nan nan nan nan nan nan nan nan nan nan nan nan nan nan nan nan nan nan nan nan nan nan nan nan nan nan nan nan nan nan nan nan nan nan nan nan nan nan nan nan nan nan nan nan nan nan nan nan nan nan nan nan nan nan nan nan nan nan nan nan nan nan nan 0 0 0 6
nan nan nan nan nan nan nan nan nan nan nan nan nan nan nan nan nan nan nan nan nan nan nan nan nan nan nan nan nan nan nan nan nan nan nan nan nan nan nan nan nan nan nan nan nan nan nan nan nan nan nan nan nan nan nan nan nan nan nan nan nan nan nan nan nan nan nan nan nan nan nan nan nan nan nan nan nan nan nan nan nan nan nan nan nan nan
nan nan nan nan nan nan nan nan nan nan nan nan nan nan nan nan nan nan nan nan nan nan nan nan nan nan nan nan nan nan nan nan nan nan nan nan nan nan nan nan nan nan nan nan nan nan nan nan nan nan nan nan nan nan nan nan nan nan nan nan nan nan nan nan nan nan nan nan nan nan nan nan nan nan nan nan nan nan nan nan nan nan nan nan nan nan
nan nan nan nan nan nan nan nan nan nan nan nan nan nan nan nan nan nan nan nan nan nan nan nan nan nan nan nan nan nan nan nan nan nan nan nan nan nan nan nan nan nan nan nan nan nan nan nan nan nan nan nan nan nan nan nan nan nan nan nan nan nan nan nan nan nan nan nan nan nan nan nan nan nan nan nan nan nan nan nan nan nan nan nan nan nan
nan nan nan nan nan nan nan nan nan nan nan nan nan nan nan nan nan nan nan nan nan nan nan nan nan nan nan nan nan nan nan nan nan nan nan nan nan nan nan nan nan nan nan nan nan nan nan nan nan nan nan nan nan nan nan nan nan nan nan nan nan nan nan nan nan nan nan nan nan nan nan nan nan nan nan nan nan nan nan nan nan nan nan nan nan nan
nan nan nan nan nan nan nan nan nan nan nan nan nan nan nan nan nan nan nan nan nan nan nan nan nan nan nan nan nan nan nan nan nan nan nan nan nan nan nan nan nan nan nan nan nan nan nan nan nan nan nan nan nan nan nan nan nan nan nan nan nan nan nan nan nan nan nan nan nan nan nan nan nan nan nan nan nan nan nan nan nan nan nan nan nan nan
nan nan nan nan nan nan nan nan nan nan nan nan nan nan nan nan nan nan nan nan nan nan nan nan nan nan nan nan nan nan nan nan nan nan nan nan nan nan nan nan nan nan nan nan nan nan nan nan nan nan nan nan nan nan nan nan nan nan nan nan nan nan nan nan nan nan nan nan nan nan nan nan nan nan nan nan nan nan nan nan nan nan nan nan nan nan
nan nan nan nan nan nan nan nan nan nan nan nan nan nan nan nan nan nan nan nan nan nan nan nan nan nan nan nan nan nan nan nan nan nan nan nan 2 2 nan nan nan nan nan nan nan nan nan nan nan nan nan nan nan nan nan nan nan nan nan nan nan nan nan nan nan nan nan nan nan nan nan nan nan nan nan nan nan nan nan nan nan nan nan nan nan nan
nan nan nan nan nan nan nan nan nan nan nan nan nan nan nan nan nan nan nan nan nan nan nan nan nan nan nan nan nan nan nan nan nan nan nan nan nan nan nan nan nan nan nan nan nan nan nan nan nan nan nan nan nan nan nan nan nan nan nan nan nan nan nan nan nan nan nan nan nan nan nan nan nan nan nan nan nan nan nan nan nan nan nan nan nan nan
nan nan nan nan nan nan nan nan nan nan nan nan nan nan nan nan nan nan nan nan nan nan nan nan nan nan nan nan nan nan nan nan nan nan nan nan nan nan nan nan nan nan nan nan nan nan nan nan nan nan nan nan nan nan nan nan nan nan nan nan nan nan nan nan nan nan nan nan nan nan nan nan nan nan nan nan nan nan nan nan nan nan nan nan nan nan
nan nan nan nan nan nan nan nan nan nan nan nan nan nan nan nan nan nan nan nan nan nan nan nan nan nan nan nan nan nan nan nan nan nan nan nan nan nan nan nan nan nan 0 nan nan nan nan nan nan nan nan nan nan nan nan nan nan nan nan nan nan nan nan nan nan nan nan nan nan nan nan nan nan nan nan nan nan nan nan nan nan nan nan nan nan nan
nan nan nan nan nan nan nan nan nan nan nan nan nan nan nan nan nan nan nan nan nan nan nan nan nan nan nan nan nan nan nan nan nan nan nan nan nan nan nan nan nan nan nan nan nan nan nan nan nan nan nan nan nan nan nan nan nan nan nan nan nan nan nan nan nan nan nan nan nan nan nan nan nan nan nan nan nan nan nan nan nan nan nan nan nan nan
nan nan nan nan nan nan nan nan nan nan nan nan nan nan nan nan nan nan nan nan nan nan nan nan nan nan nan nan nan nan nan nan nan nan nan nan nan nan nan nan nan nan nan nan nan nan nan nan nan nan 0 nan nan nan nan nan nan nan nan nan nan nan nan nan nan nan nan nan nan nan nan nan nan nan nan nan nan nan nan nan nan nan nan nan nan nan
nan nan nan nan nan nan nan nan nan nan nan nan nan nan nan nan nan nan nan nan nan nan nan nan nan nan nan nan nan nan nan nan nan nan nan nan nan nan nan nan nan nan nan nan nan nan nan nan nan nan nan 2 nan nan nan nan nan nan nan nan nan nan nan nan nan nan nan nan nan nan nan nan nan nan nan nan nan nan nan nan nan nan nan nan nan nan
CIN
-0 nan -0 nan nan -0 -0 nan nan nan nan nan nan nan nan nan nan nan nan nan nan nan nan nan nan nan nan nan nan nan -0 -0 -0 -0 -0 -3 -3 -3 -4 -5 -5 -7 -10 -15 -15 -16 -13 -2 -2 -1 -0 -1 -0 -0 -0 -0 -0 -0 -0 -0 -0 -1 -0 -0 -0 -0 -0 -0 -0 -0 -0 -0 -0 -0 -0 -0 -0 -0 -0 -0 -0 -0 -0 -0 -0 -0
nan -0 nan nan nan nan nan nan nan nan nan nan nan nan nan nan nan nan nan nan nan nan nan nan nan nan nan nan -0 -0 -0 -0 -0 -0 -0 -1 -3 -3 -4 -3 -3 -5 -12 -15 -15 -15 -2 -3 -3 -1 -1 nan nan nan -15 -10 -10 -1 -0 -0 -0 -0 -0 -0 -0 -0 -0 -0 -0 -0 -0 -0 -0 -0 -0 -0 -0 -0 -0 -0 -0 -0 -0 -0 -0 -0
nan -0 -0 -0 -0 nan nan -0 -0 -0 -0 nan nan nan nan nan -0 -0 nan -0 -0 nan nan nan nan nan nan nan -0 -0 -0 -0 -0 -0 -0 -0 -2 -2 -3 -2 -2 -0 -0 -13 -13 -14 -2 -2 -2 -2 -1 nan nan nan -30 -25 -25 -4 -1 -1 -1 -0 -0 -0 -0 -0 -0 -0 -0 -0 -0 -0 -0 -0 -0 -0 -0 -0 -0 -0 -0 -0 -0 -0 -0 -0
nan -0 -0 -0 -0 -0 -0 -0 -0 -0 -0 -0 -0 -0 -0 nan -0 -0 -0 nan nan -0 -0 nan nan -0 nan nan -0 -0 -0 -0 -0 -0 -0 -0 -10 -10 -3 -2 -2 -0 -0 -0 -0 -14 -1 -25 -25 nan nan nan nan nan nan nan nan nan nan -5 -5 -4 -0 -0 -0 -0 -0 -0 -0 -0 -0 -0 -0 -0 -0 -0 -0 -0 -0 -0 -0 -0 -0 -0 -0 -0
nan -0 -0 -0 -0 -0 -0 -0 nan nan -0 -0 -0 -0 nan nan -0 -0 -0 -0 -0 nan nan nan nan nan nan -0 -0 -0 -0 -0 -0 -0 -0 -0 -23 -23 -5 -2 -2 -0 -0 -0 -0 -21 -24 -0 -0 -0 -0 -0 nan nan nan nan nan nan nan nan nan nan nan nan nan nan -0 -0 -0 -0 -0 -0 -0 -0 -0 -0 -0 -0 -0 -0 -0 -0 -0 -0 -0 -0
nan -0 -0 -0 -0 nan -0 -0 nan nan -0 nan nan nan nan nan -0 -0 -0 -0 -0 -0 nan -0 -0 nan nan -0 -0 -0 -0 -0 -0 -0 -0 -0 -0 -0 -9 -0 -0 -0 -0 -0 -0 -0 -0 -0 -0 -0 -0 -0 nan nan nan nan nan nan nan nan nan nan nan nan nan nan -0 -0 -0 -0 -0 -0 -0 -0 -0 -0 -0 -0 -0 -0 -0 -0 -0 -0 -0 -0
nan nan -0 -0 -0 -0 -0 -0 -0 -0 -0 nan nan nan nan -0 -0 -0 -0 -0 -0 nan nan -0 -0 nan nan nan nan nan -0 -0 -0 -0 -0 -0 -0 -0 -0 -0 -0 -0 -0 -0 -0 -0 -0 -0 -0 -0 -0 -0 nan nan nan nan nan nan nan nan nan nan -0 -0 -0 -0 -0 -1 -0 -0 -0 -0 -0 -0 -0 -0 -0 -0 -0 -0 -0 -0 -0 nan nan -0
nan nan nan nan nan nan nan nan -0 -0 nan nan nan nan nan nan nan nan nan nan nan nan -0 nan nan nan nan nan nan nan nan nan nan nan -0 -0 -0 -0 -21 -0 -0 -0 -0 -0 -0 -0 -0 -0 -0 -0 -0 -0 -0 -0 -0 nan nan nan nan nan nan nan nan nan nan nan nan nan nan nan nan nan nan nan nan nan nan nan nan -0 -0 -0 nan nan nan nan
nan nan nan nan nan nan nan nan -0 -0 -0 nan nan nan nan nan nan nan nan nan nan nan nan nan nan nan nan nan nan nan nan -0 -0 -0 -0 -0 -0 -0 -0 -0 -0 -0 -0 -0 -0 -0 -0 -0 -0 -0 -0 -0 -0 -0 nan nan nan nan nan nan nan nan nan nan nan nan nan nan nan nan nan nan nan nan nan nan nan nan nan nan nan nan nan nan nan nan
nan nan nan nan nan nan nan nan nan nan nan -0 -0 -0 nan nan nan nan nan nan nan nan nan nan nan nan nan nan nan nan nan nan -0 -0 -0 nan -0 -0 -45 -38 -38 -0 -0 -0 -0 -0 -0 -0 -0 -0 -0 nan nan nan nan nan nan nan nan nan nan nan nan nan nan nan nan nan nan nan nan nan nan nan nan nan nan nan nan nan nan nan nan nan nan nan
nan nan nan nan nan nan nan nan nan nan nan nan nan nan nan nan nan nan nan nan nan nan nan nan nan nan nan nan nan nan nan nan nan nan -0 nan -0 -0 nan nan nan nan -38 -1 -1 -0 -0 -0 -0 -0 -0 nan nan nan nan nan nan nan nan nan nan nan nan nan nan nan nan nan nan nan nan nan nan nan nan nan nan nan nan nan nan nan nan nan nan nan
nan nan nan nan nan nan nan nan nan nan nan nan nan nan nan nan nan nan nan nan nan nan nan nan nan nan nan nan nan nan nan nan nan nan nan nan -0 -0 nan nan nan nan nan -0 -0 -1 -0 -0 -0 nan nan nan nan nan nan nan nan nan nan nan nan nan nan nan nan nan nan nan nan nan nan nan nan nan nan nan nan nan nan nan nan nan nan nan nan nan
nan nan nan nan nan nan nan nan nan nan nan nan nan nan nan nan nan nan nan nan nan nan nan nan nan nan nan nan nan nan nan nan nan nan nan nan nan nan nan nan nan nan nan nan nan nan -0 -0 -0 nan nan nan nan nan nan nan nan nan nan nan nan nan nan nan nan nan nan nan nan nan nan nan nan nan nan nan nan nan nan nan nan nan nan nan nan nan
nan nan nan nan nan nan nan nan nan nan nan nan nan nan nan nan nan nan nan nan nan nan nan nan nan nan nan nan nan nan nan nan nan nan nan nan nan nan nan nan nan nan nan nan nan nan -0 nan nan nan nan nan nan nan nan nan nan nan nan nan nan nan nan nan nan nan nan nan nan nan nan nan nan nan nan nan nan nan nan nan nan nan nan nan nan nan
nan nan nan nan nan nan nan nan nan nan nan nan nan nan nan nan nan nan nan nan nan nan nan nan nan nan nan nan nan nan nan nan nan nan nan nan nan nan nan nan nan nan nan nan nan nan nan nan nan nan nan nan nan nan nan nan nan nan nan nan nan nan nan nan nan nan nan nan nan nan nan nan nan nan nan nan nan nan nan nan nan nan nan nan nan nan
nan nan nan nan nan nan nan nan nan nan nan nan nan nan nan nan nan nan nan nan nan nan nan nan nan nan nan nan nan nan nan nan nan nan nan nan nan nan nan nan nan nan nan nan nan nan nan nan nan nan nan nan nan nan nan nan nan nan nan nan nan nan nan nan nan nan nan nan nan nan nan nan nan nan nan nan nan nan nan nan nan nan nan nan nan nan
nan nan nan nan nan nan nan nan nan nan nan nan nan nan nan nan nan nan nan nan nan nan nan nan nan nan nan nan nan nan nan nan nan nan nan nan nan nan nan nan nan nan nan nan nan nan nan nan nan nan nan nan nan nan nan nan nan nan nan nan nan nan nan nan nan nan nan nan nan nan nan nan nan nan nan nan nan nan nan nan nan nan nan nan nan nan
nan nan nan nan nan nan nan nan nan nan nan nan nan nan nan nan nan nan nan nan nan nan nan nan nan nan nan nan nan nan nan nan nan nan nan nan nan nan nan nan nan nan nan nan nan nan nan nan nan nan nan -0 -0 -0 nan nan nan -0 nan nan nan nan nan nan nan nan nan nan nan nan nan nan nan nan nan nan nan nan nan nan nan nan nan nan nan nan
nan nan nan nan nan nan nan nan nan nan nan nan nan nan nan nan nan nan nan nan nan nan nan nan nan nan nan nan nan nan nan nan nan nan nan nan nan nan nan nan nan nan nan nan nan nan nan nan nan nan nan -1 -0 -0 -0 -0 -0 -0 -0 -0 -0 -0 nan nan nan nan nan nan nan nan nan nan nan nan nan nan nan nan nan nan nan nan nan nan nan nan
nan nan nan nan nan nan nan nan nan nan nan nan nan nan nan nan nan nan -0 nan nan nan nan nan nan nan nan nan nan nan nan nan nan nan nan nan nan nan nan nan nan nan nan nan nan nan nan nan nan -0 nan nan -1 -1 -0 -0 -0 -0 -0 -0 -0 -0 -0 -0 -0 -0 nan nan nan nan nan nan nan nan nan nan nan nan nan nan nan nan nan nan nan nan
nan nan nan nan nan nan nan nan nan nan nan nan nan nan nan nan nan nan nan nan nan nan nan nan nan nan nan nan nan nan nan nan nan nan nan nan nan nan nan nan nan nan nan nan nan nan nan nan nan nan nan nan nan nan -0 -0 -0 -0 -0 -0 -0 -0 -0 -0 -0 -0 -0 -0 -0 -0 nan nan nan nan nan nan nan nan nan nan nan nan nan nan nan nan
nan nan nan nan nan nan nan nan nan nan nan nan nan nan nan nan nan nan nan nan nan nan nan nan nan nan nan nan nan nan nan nan nan nan nan nan nan nan nan nan nan nan nan nan nan nan nan nan nan nan nan nan nan nan -1 -0 -0 -0 -0 -0 -0 -0 -0 -0 -0 -0 -0 -0 -0 -0 -0 -0 nan nan nan nan nan nan nan nan nan nan nan nan nan nan
nan nan nan nan nan nan nan nan nan nan nan nan nan nan nan nan nan nan nan nan nan nan nan nan nan nan nan nan nan nan nan nan nan nan nan nan nan nan nan nan nan nan nan nan nan nan nan nan nan nan nan nan nan nan nan -0 -0 -0 -0 -0 -0 -0 -0 -0 -0 -0 -0 -0 -0 -0 -0 -0 -0 -0 -0 nan nan nan nan nan nan nan nan nan nan nan
nan nan nan nan nan nan nan nan nan nan nan nan nan nan nan nan nan nan nan nan nan nan nan nan nan nan nan nan nan nan nan nan nan nan nan nan nan nan nan nan nan nan nan nan nan nan nan nan nan nan nan nan nan nan nan nan nan -0 -0 -0 -0 -0 -0 -0 -0 -0 -0 -0 -0 -0 -0 -0 -0 -0 -0 -0 -0 -0 nan nan nan nan nan nan nan nan
nan nan nan nan nan nan nan nan nan nan nan nan nan nan nan nan nan nan nan nan nan nan nan nan nan nan nan nan nan nan nan nan nan nan nan nan nan nan nan nan nan nan nan nan nan nan nan nan nan nan nan nan nan nan nan -0 -0 -0 -0 -0 -0 -0 -0 -0 -0 -0 -0 -0 -0 -0 -0 -0 -0 -0 -0 -0 -0 -0 -0 nan nan nan nan nan nan nan
nan nan nan nan nan nan nan nan nan nan nan nan nan nan nan nan nan nan nan nan nan nan nan nan nan nan nan nan nan nan nan nan nan nan nan nan nan nan nan nan nan nan nan nan nan nan nan nan nan nan nan nan nan nan nan nan nan nan -0 -0 -0 -0 -0 -0 -0 -0 -0 -0 -0 -0 -0 -0 -0 -0 -0 -0 -0 -0 -0 -0 -0 nan nan nan nan nan
nan nan nan nan nan -0 -0 -0 -0 -0 -0 nan nan nan nan nan nan nan nan nan nan nan nan nan nan nan nan nan nan nan nan nan nan nan nan nan nan nan nan nan nan nan nan nan nan nan nan nan nan nan nan nan nan nan nan nan nan nan -0 -0 -0 -0 -0 -0 -0 -0 -0 -0 -0 -0 -0 -0 -0 -0 -0 -0 -0 -0 -0 -0 -0 nan nan nan nan nan
-0 -0 -0 -0 -0 -0 -0 -0 -0 -0 -0 -0 -0 -0 nan nan nan nan nan nan nan nan nan nan nan nan nan nan nan nan nan nan nan nan nan nan nan nan nan nan nan nan nan nan nan nan nan nan nan nan nan nan nan nan nan nan nan nan nan nan nan -0 -0 -0 -0 -0 -0 -0 -0 -0 -0 -0 -0 -0 -0 -0 -0 -0 -0 -0 -0 -0 -0 nan nan nan
-0 -0 -0 -0 -0 -0 -0 -0 -0 -0 -0 -0 -0 -0 nan nan nan nan nan nan nan nan nan nan nan nan nan nan nan nan nan nan nan nan nan nan nan nan nan nan nan nan nan nan nan nan nan nan nan nan nan nan nan nan nan nan nan nan nan nan nan nan nan -0 -0 -0 -0 -0 -0 -0 -0 -0 -0 -0 -0 -0 -0 -0 -0 -0 -0 -0 nan nan nan nan
nan nan nan nan nan nan nan nan nan nan -0 -0 nan nan nan nan nan nan nan nan nan nan nan nan nan nan nan nan nan nan nan nan nan nan nan nan nan nan nan nan nan nan nan nan nan nan nan nan nan nan nan nan nan nan nan nan nan nan nan nan nan nan nan nan nan -0 -0 -0 -0 -0 -0 -0 -0 -0 -0 -0 -0 -0 -0 -0 -0 -14 nan nan nan nan
nan nan nan nan nan nan nan nan nan nan nan nan nan nan nan nan nan nan nan nan nan nan nan nan nan nan nan nan nan nan nan nan nan nan nan nan nan nan nan nan nan nan nan nan nan nan nan nan nan nan nan nan nan nan nan nan nan nan nan nan nan nan nan nan nan nan nan -0 -0 -0 -0 -0 -0 -0 -0 -0 -0 -0 -0 -0 -0 nan nan nan nan nan
nan nan nan nan nan nan nan nan nan nan nan nan nan nan nan nan nan nan nan nan nan nan nan nan nan nan nan nan nan nan nan nan nan nan nan nan nan nan nan nan nan nan nan nan nan nan nan nan nan nan nan nan nan nan nan nan nan nan nan nan nan nan nan nan nan nan nan nan nan nan nan nan nan nan -0 -0 -0 -0 -0 -0 -0 -0 nan nan nan nan
nan nan nan nan nan nan nan nan nan nan nan nan nan nan nan nan nan nan nan nan nan nan nan nan nan nan nan nan nan nan nan nan nan nan nan nan nan nan nan nan nan nan nan nan nan nan nan nan nan nan nan nan nan nan nan nan nan nan nan nan nan nan nan nan nan nan nan nan nan nan nan nan nan nan nan -2 -0 -0 -0 -0 -0 -0 -22 nan nan nan
nan nan nan nan nan nan nan nan nan nan nan nan nan nan nan nan nan nan nan nan nan nan nan nan nan nan nan nan nan nan nan nan nan nan nan nan nan nan nan nan nan nan nan nan nan nan nan nan nan nan nan nan nan nan nan nan nan nan nan nan nan nan nan nan nan nan nan nan nan nan nan nan nan nan nan nan nan nan -1 -0 -0 -0 -0 nan nan nan
nan nan nan nan nan nan nan nan nan nan nan nan nan nan nan nan nan nan nan nan nan nan nan nan nan nan nan nan nan nan nan nan nan nan nan nan nan nan nan nan nan nan nan nan nan nan nan nan nan nan nan nan nan nan nan nan nan nan nan nan nan nan nan nan nan nan nan nan nan nan nan nan nan nan nan nan nan nan -3 -0 -0 -0 -0 -5 -5 nan
nan nan nan nan nan nan nan nan nan nan nan nan nan nan nan nan nan nan nan nan nan nan nan nan nan nan nan nan nan nan nan nan nan nan nan nan nan nan nan nan nan nan nan nan nan nan nan nan nan nan nan nan nan nan nan nan nan nan nan nan nan nan nan nan nan nan nan nan nan nan nan nan nan nan nan nan nan nan nan -0 -0 -0 -0 -4 -4 -11
nan nan nan nan nan nan nan nan nan nan nan nan nan nan nan nan nan nan nan nan nan nan nan nan nan nan nan nan nan nan nan nan nan nan nan nan nan nan nan nan nan nan nan nan nan nan nan nan nan nan nan nan nan nan nan nan nan nan nan nan nan nan nan nan nan nan nan nan nan nan nan nan nan nan nan nan nan nan nan -1 -1 -2 -0 -0 -0 -5
nan nan nan nan nan nan nan nan nan nan nan nan nan nan nan nan nan nan nan nan nan nan nan nan nan nan nan nan nan nan nan nan nan nan nan nan nan nan nan nan nan nan nan nan nan nan nan nan nan nan nan nan nan nan nan nan nan nan nan nan nan nan nan nan nan nan nan nan nan nan nan nan nan nan nan nan nan nan nan nan nan nan -5 -7 -7 -0
nan nan nan nan nan nan nan nan nan nan nan nan nan nan nan nan nan nan nan nan nan nan nan nan nan nan nan nan nan nan nan nan nan nan nan nan nan nan nan nan nan nan nan nan nan nan nan nan nan nan nan nan nan nan nan nan nan nan nan nan nan nan nan nan nan nan nan nan nan nan nan nan nan nan nan nan nan nan nan nan nan nan nan nan nan nan
nan nan nan nan nan nan nan nan nan nan nan nan nan nan nan nan nan nan nan nan nan nan nan nan nan nan nan nan nan nan nan nan nan nan nan nan nan nan nan nan nan nan nan nan nan nan nan nan nan nan nan nan nan nan nan nan nan nan nan nan nan nan nan nan nan nan nan nan nan nan nan nan nan nan nan nan nan nan nan nan nan nan nan nan nan nan
nan nan nan nan nan nan nan nan nan nan nan nan nan nan nan nan nan nan nan nan nan nan nan nan nan nan nan nan nan nan nan nan nan nan nan nan nan nan nan nan nan nan nan nan nan nan nan nan nan nan nan nan nan nan nan nan nan nan nan nan nan nan nan nan nan nan nan nan nan nan nan nan nan nan nan nan nan nan nan nan nan nan nan nan nan nan
nan nan nan nan nan nan nan nan nan nan nan nan nan nan nan nan nan nan nan nan nan nan nan nan nan nan nan nan nan nan nan nan nan nan nan nan nan nan nan nan nan nan nan nan nan nan nan nan nan nan nan nan nan nan nan nan nan nan nan nan nan nan nan nan nan nan nan nan nan nan nan nan nan nan nan nan nan nan nan nan nan nan nan nan nan nan
nan nan nan nan nan nan nan nan nan nan nan nan nan nan nan nan nan nan nan nan nan nan nan nan nan nan nan nan nan nan nan nan nan nan nan nan nan nan nan nan nan nan nan nan nan nan nan nan nan nan nan nan nan nan nan nan nan nan nan nan nan nan nan nan nan nan nan nan nan nan nan nan nan nan nan nan nan nan nan nan nan nan nan nan nan nan
nan nan nan nan nan nan nan nan nan nan nan nan nan nan nan nan nan nan nan nan nan nan nan nan nan nan nan nan nan nan nan nan nan nan nan nan nan nan nan nan nan nan nan nan nan nan nan nan nan nan nan nan nan nan nan nan nan nan nan nan nan nan nan nan nan nan nan nan nan nan nan nan nan nan nan nan nan nan nan nan nan nan nan nan nan nan
nan nan nan nan nan nan nan nan nan nan nan nan nan nan nan nan nan nan nan nan nan nan nan nan nan nan nan nan nan nan nan nan nan nan nan nan -0 -0 nan nan nan nan nan nan nan nan nan nan nan nan nan nan nan nan nan nan nan nan nan nan nan nan nan nan nan nan nan nan nan nan nan nan nan nan nan nan nan nan nan nan nan nan nan nan nan nan
nan nan nan nan nan nan nan nan nan nan nan nan nan nan nan nan nan nan nan nan nan nan nan nan nan nan nan nan nan nan nan nan nan nan nan nan nan nan nan nan nan nan nan nan nan nan nan nan nan nan nan nan nan nan nan nan nan nan nan nan nan nan nan nan nan nan nan nan nan nan nan nan nan nan nan nan nan nan nan nan nan nan nan nan nan nan
nan nan nan nan nan nan nan nan nan nan nan nan nan nan nan nan nan nan nan nan nan nan nan nan nan nan nan nan nan nan nan nan nan nan nan nan nan nan nan nan nan nan nan nan nan nan nan nan nan nan nan nan nan nan nan nan nan nan nan nan nan nan nan nan nan nan nan nan nan nan nan nan nan nan nan nan nan nan nan nan nan nan nan nan nan nan
nan nan nan nan nan nan nan nan nan nan nan nan nan nan nan nan nan nan nan nan nan nan nan nan nan nan nan nan nan nan nan nan nan nan nan nan nan nan nan nan nan nan -0 nan nan nan nan nan nan nan nan nan nan nan nan nan nan nan nan nan nan nan nan nan nan nan nan nan nan nan nan nan nan nan nan nan nan nan nan nan nan nan nan nan nan nan
nan nan nan nan nan nan nan nan nan nan nan nan nan nan nan nan nan nan nan nan nan nan nan nan nan nan nan nan nan nan nan nan nan nan nan nan nan nan nan nan nan nan nan nan nan nan nan nan nan nan nan nan nan nan nan nan nan nan nan nan nan nan nan nan nan nan nan nan nan nan nan nan nan nan nan nan nan nan nan nan nan nan nan nan nan nan
nan nan nan nan nan nan nan nan nan nan nan nan nan nan nan nan nan nan nan nan nan nan nan nan nan nan nan nan nan nan nan nan nan nan nan nan nan nan nan nan nan nan nan nan nan nan nan nan nan nan -0 nan nan nan nan nan nan nan nan nan nan nan nan nan nan nan nan nan nan nan nan nan nan nan nan nan nan nan nan nan nan nan nan nan nan nan
nan nan nan nan nan nan nan nan nan nan nan nan nan nan nan nan nan nan nan nan nan nan nan nan nan nan nan nan nan nan nan nan nan nan nan nan nan nan nan nan nan nan nan nan nan nan nan nan nan nan nan -0 nan nan nan nan nan nan nan nan nan nan nan nan nan nan nan nan nan nan nan nan nan nan nan nan nan nan nan nan nan nan nan nan nan nan
Wind_Speed
0 0 1 1 1 1 1 2 2 2 2 2 2 2 2 3 3 3 4 4 4 3 3 3 4 4 5 7 8 9 10 10 10 9 7 4 5 6 7 7 7 6 6 6 5 5 5 5 4 4 4 4 4 4 5 5 6 6 7 7 6 5 4 7 10 12 13 14 15 16 17 17 16 16 16 15 15 15 15 14 14 13 12 11 10 9
1 1 1 1 2 2 1 1 1 1 2 1 1 1 1 2 2 2 2 3 3 3 3 3 4 4 5 6 7 9 9 10 10 10 9 5 5 7 8 8 7 7 7 6 6 5 5 5 5 5 4 4 5 5 5 6 6 6 6 6 6 6 6 8 10 12 12 13 13 14 14 14 14 14 14 14 14 14 14 13 12 11 10 9 9 8
1 1 1 1 1 1 1 0 0 0 1 1 1 1 1 1 1 1 1 2 2 3 3 2 3 3 4 5 6 8 9 10 10 10 10 7 6 7 9 9 9 8 7 7 6 6 6 6 5 5 5 5 5 5 5 5 6 6 6 6 7 7 8 9 10 11 12 11 12 12 12 12 13 13 13 13 13 13 12 12 11 10 9 8 7 7
0 0 1 1 1 0 1 1 1 1 0 0 0 1 1 1 1 0 0 1 2 2 2 2 2 2 3 4 5 7 9 10 10 10 10 8 6 6 10 10 10 9 8 8 7 7 6 6 6 5 5 5 5 5 5 5 6 6 6 7 7 7 8 9 10 10 10 10 10 10 11 11 12 12 12 12 12 11 11 10 9 8 8 7 7 6
1 1 1 0 0 0 1 0 0 1 1 1 1 1 1 1 1 0 0 1 1 2 2 2 2 2 2 3 5 7 9 10 10 10 10 10 7 6 9 10 11 10 9 9 8 8 7 7 6 6 6 6 6 6 5 5 6 6 7 7 7 7 7 8 9 9 9 9 9 9 10 11 11 12 11 11 11 10 10 9 9 8 7 7 6 6
1 1 0 0 0 0 1 1 1 1 1 1 1 1 1 1 1 1 1 1 2 2 2 2 2 2 2 3 5 7 9 10 10 10 10 10 9 7 8 10 11 11 10 10 9 8 8 7 7 6 6 6 6 6 6 6 6 6 7 7 7 7 7 7 7 8 8 8 9 9 9 10 10 11 11 10 10 9 9 8 8 7 7 6 6 5
1 1 0 0 0 0 0 1 0 0 0 0 0 1 1 1 1 1 1 1 1 1 2 2 2 2 2 2 4 6 7 8 9 9 9 9 8 7 7 10 11 11 11 10 10 9 8 7 7 6 6 6 6 6 6 6 6 7 7 7 7 7 7 6 7 7 7 8 8 9 9 9 9 9 10 9 9 9 8 8 7 6 6 6 5 5
2 1 1 1 0 1 1 0 0 0 1 1 1 1 1 1 1 1 1 1 1 1 2 2 2 1 1 2 3 5 5 6 6 7 7 7 7 6 7 9 11 12 11 11 10 9 9 8 7 7 7 7 7 7 6 6 6 7 7 7 7 7 7 7 7 7 8 8 9 9 9 9 9 9 9 8 8 8 7 7 6 6 6 5 5 4
2 1 1 0 0 0 1 0 0 0 0 1 1 1 1 1 1 1 1 1 1 1 1 2 2 2 1 2 3 4 4 4 4 5 5 5 5 5 6 8 11 12 11 11 10 10 9 9 8 8 7 7 7 7 7 7 7 7 7 7 7 8 8 8 8 8 9 9 9 9 10 10 10 9 9 9 8 7 7 6 6 6 5 5 4 4
2 1 0 0 0 0 0 0 0 0 0 0 1 1 1 0 1 1 1 1 1 1 1 1 2 2 2 2 3 3 4 5 5 6 7 8 7 4 3 5 8 10 10 10 10 10 10 9 9 8 8 8 8 8 7 7 7 7 7 7 7 8 8 9 9 9 9 9 10 10 10 10 10 10 10 10 9 9 8 8 7 6 6 5 5 4
2 1 1 1 1 1 1 0 0 1 1 1 1 1 1 1 1 1 1 2 2 2 1 1 1 1 2 3 3 3 4 4 5 6 7 9 9 7 2 2 5 7 9 9 10 10 10 10 9 9 9 8 8 8 8 7 7 7 7 7 7 8 8 8 8 9 9 9 9 9 9 9 9 9 9 9 9 8 8 8 8 7 6 6 5 5
2 2 1 1 0 0 0 0 1 1 1 1 1 1 1 1 1 1 0 1 1 2 2 2 1 1 1 2 3 3 3 3 3 4 5 6 7 7 5 3 4 6 7 8 9 9 10 10 10 9 9 8 8 8 7 7 7 7 7 7 7 8 8 8 8 8 8 8 8 8 8 8 8 8 8 7 7 7 7 7 7 7 6 6 5 5
1 1 1 1 1 0 0 0 1 1 1 1 0 1 1 0 0 1 1 0 1 1 1 2 1 1 0 1 1 2 3 3 2 2 3 4 5 5 4 3 2 3 4 4 5 6 8 9 9 9 8 8 8 8 7 7 8 8 8 8 8 8 8 8 8 8 8 8 8 7 7 7 7 6 6 6 5 5 5 5 6 6 6 6 5 5
1 1 1 1 0 0 0 0 0 0 0 1 1 1 1 0 1 1 1 0 0 1 1 1 2 1 1 1 1 2 2 2 2 2 2 3 3 3 3 3 2 2 3 3 3 4 6 6 6 6 7 7 7 7 7 7 8 8 8 8 8 8 8 8 7 7 7 7 7 7 6 6 5 5 5 4 4 4 4 4 5 5 5 5 5 5
1 1 1 1 1 0 1 1 1 1 1 1 1 1 1 1 1 1 1 0 1 1 1 2 2 2 1 1 1 2 2 2 2 2 2 2 3 3 3 2 2 2 2 3 3 3 4 4 4 4 5 5 6 6 6 6 7 8 8 8 8 8 8 7 7 7 6 6 6 6 5 5 4 4 3 3 3 3 3 4 4 4 4 5 5 5
2 2 2 1 1 1 1 1 1 1 1 1 1 1 1 1 1 1 1 0 0 1 1 1 2 2 1 0 1 2 2 2 2 2 2 2 3 3 3 2 2 2 2 2 2 2 3 3 3 4 4 5 6 6 6 6 7 8 8 8 8 7 7 7 6 6 6 5 5 5 4 4 3 3 2 2 2 2 2 2 3 3 3 4 4 5
2 2 2 1 1 1 1 1 1 1 1 1 1 1 1 1 1 1 1 1 0 0 0 0 1 1 1 1 1 2 3 2 2 2 1 2 2 3 3 2 2 2 2 2 2 2 2 2 2 3 3 5 6 6 6 6 7 7 7 7 7 7 7 6 6 6 5 5 5 4 4 3 3 3 2 2 2 1 1 1 1 2 3 3 4 5
2 2 2 1 1 1 1 0 0 0 1 1 1 1 1 1 1 1 1 1 1 1 1 1 1 1 1 1 1 2 2 2 2 1 1 1 2 2 3 2 2 2 2 2 2 2 2 2 1 2 3 5 6 6 6 6 6 6 6 6 6 6 6 6 6 6 6 5 5 4 4 4 4 3 3 3 2 2 1 1 1 2 2 3 4 5
2 2 2 2 1 1 1 1 1 1 1 1 1 1 1 1 1 1 0 1 1 1 1 1 1 1 1 1 1 1 2 1 1 1 1 1 2 2 3 2 2 2 2 2 2 2 2 2 1 0 3 5 6 6 6 6 6 6 6 6 6 6 6 6 6 6 6 6 5 5 5 5 4 4 4 4 3 3 3 2 3 3 3 4 4 5
2 2 2 2 2 1 1 1 1 1 1 1 2 1 1 1 1 1 1 1 1 1 1 1 1 1 1 1 1 2 2 2 1 1 1 1 2 2 3 2 2 1 1 1 1 1 2 2 2 1 1 3 5 6 7 7 7 7 7 7 7 7 7 7 7 7 7 6 6 6 6 6 5 5 5 5 4 4 4 4 4 4 4 4 5 5
2 2 2 2 2 2 2 1 1 1 1 2 2 2 1 1 1 1 1 1 1 1 1 1 1 1 1 1 1 2 2 2 1 1 1 1 1 2 2 2 2 1 1 1 1 1 1 1 2 2 2 2 3 5 7 8 8 8 8 8 8 8 8 8 8 8 8 7 7 7 7 7 6 6 6 6 5 5 5 5 5 5 5 5 5 6
3 2 2 2 2 2 2 2 1 1 1 2 2 2 1 1 1 1 1 1 1 1 1 1 1 1 1 1 1 1 1 1 1 1 1 1 1 2 2 2 1 1 1 1 1 1 1 1 2 2 2 3 3 4 5 6 7 8 8 9 9 9 9 9 9 9 9 9 8 8 8 8 7 7 7 7 6 6 6 6 6 6 6 6 6 6
3 3 2 2 2 2 2 2 1 0 1 2 2 2 2 2 2 2 2 2 2 2 1 1 1 0 0 1 1 1 1 1 1 1 1 0 1 2 2 2 1 1 1 2 2 2 2 2 2 2 3 3 4 4 4 5 6 6 7 8 8 9 9 10 10 10 10 10 10 9 9 9 8 8 7 7 7 7 7 7 7 7 7 7 7 7
3 3 3 2 2 2 2 2 1 1 1 1 1 1 1 2 1 1 1 1 2 2 1 1 1 1 1 0 1 1 1 1 1 1 1 0 1 1 2 2 2 1 2 1 1 2 2 2 2 2 2 4 4 5 5 5 6 6 6 7 7 8 8 9 10 10 11 11 10 10 10 9 9 9 8 8 8 8 8 7 7 7 8 8 7 7
4 3 3 3 3 3 3 3 2 2 2 2 1 1 2 2 2 2 2 2 2 2 2 2 1 2 2 2 2 2 2 2 1 1 1 0 1 1 2 2 1 1 2 2 1 2 2 2 2 2 2 3 4 5 6 6 6 7 7 7 7 7 8 8 9 10 11 11 11 11 10 10 9 9 9 9 8 8 8 8 8 8 8 8 8 8
5 5 4 4 5 5 5 5 5 5 5 3 3 2 2 3 3 3 2 2 1 1 2 2 1 1 2 2 2 2 2 2 2 1 1 0 1 1 1 1 1 1 2 2 2 1 1 2 2 2 2 2 3 5 6 6 7 7 8 8 8 8 8 8 9 9 10 11 11 11 11 10 10 9 9 9 9 9 9 9 8 8 8 8 8 8
7 7 7 6 6 6 5 5 6 6 6 6 5 4 3 3 3 2 1 1 1 1 2 1 1 1 2 2 2 2 2 2 1 1 1 1 0 1 1 1 1 1 2 2 2 1 1 2 2 2 2 2 3 4 5 6 7 7 8 8 9 9 9 9 9 10 10 10 11 11 11 10 10 10 10 10 10 10 10 9 9 9 8 8 6 5
8 8 7 7 6 5 5 5 5 5 5 5 6 5 4 3 2 2 1 1 1 2 2 1 1 0 1 2 2 2 2 2 1 1 0 1 0 1 1 1 1 1 1 2 2 1 1 1 2 2 2 2 2 3 4 5 6 6 7 8 8 9 9 10 10 10 10 10 10 11 11 11 10 10 10 10 10 10 10 10 9 9 8 5 2 1
7 7 7 7 7 6 6 5 4 5 5 5 4 4 3 3 3 3 2 2 2 2 2 2 1 1 0 1 2 2 2 1 1 1 0 1 0 1 1 1 1 1 1 1 2 2 2 2 2 2 2 3 3 3 3 4 5 5 5 6 7 8 8 9 9 10 10 10 10 10 10 10 10 10 11 11 11 11 11 11 10 8 5 2 1 1
5 6 6 6 6 6 6 5 5 5 6 6 5 4 3 2 2 3 3 3 3 3 2 2 1 1 1 1 1 2 2 1 1 1 1 1 0 1 1 1 2 2 1 1 1 2 2 2 2 1 2 3 3 2 2 3 3 3 4 5 5 6 6 7 8 8 9 9 9 9 9 9 10 10 10 11 11 11 11 11 9 6 2 2 2 1
3 3 3 3 4 4 4 4 5 5 5 6 6 5 3 2 2 2 2 3 3 3 3 2 2 2 2 1 1 1 1 1 1 0 1 1 0 0 0 1 1 2 1 1 1 1 2 2 2 2 2 2 2 2 2 2 2 2 2 3 3 4 5 6 6 7 7 8 8 9 9 9 9 10 10 11 11 12 12 12 10 6 2 2 2 1
2 2 2 2 2 3 3 3 3 4 4 4 4 4 4 3 2 2 2 2 3 3 3 2 2 2 1 1 1 1 1 2 1 0 2 1 1 0 0 0 1 1 2 1 1 1 1 2 2 3 2 2 3 3 2 2 2 2 2 2 2 3 4 5 5 6 6 7 8 8 9 9 9 10 10 11 11 12 12 13 11 7 3 3 3 2
2 2 2 2 2 2 3 3 3 3 2 2 2 3 3 3 3 3 2 2 2 3 3 3 2 2 1 1 1 1 2 2 2 1 2 2 1 1 0 1 1 1 2 2 1 1 1 1 2 2 3 3 2 2 2 2 2 2 2 2 2 2 4 4 4 4 5 5 6 6 7 8 9 9 10 11 11 12 12 13 12 9 5 4 3 3
2 2 2 2 2 2 2 2 2 2 2 2 2 2 2 2 2 3 2 2 2 2 3 3 3 2 2 1 0 1 2 3 2 1 2 3 2 1 1 1 1 1 1 2 2 1 0 0 1 2 3 3 2 2 2 2 2 2 1 1 1 2 2 3 3 3 3 3 3 4 5 5 6 7 8 9 10 10 11 12 12 11 9 5 4 4
2 2 1 1 1 1 1 2 2 1 1 1 1 1 1 2 2 2 2 2 2 2 2 3 3 3 3 2 1 1 2 3 3 1 2 3 3 2 1 1 1 1 1 1 1 1 0 1 1 1 2 3 3 2 2 2 2 2 1 0 0 1 1 2 2 2 3 2 2 2 3 3 3 4 5 7 8 9 10 11 12 12 11 8 6 5
2 1 1 1 1 1 1 0 0 0 0 1 0 0 1 1 1 2 2 2 2 2 2 2 2 2 3 4 3 2 2 3 2 1 1 2 3 2 1 1 1 2 2 1 1 0 0 1 1 1 1 2 2 3 2 2 2 2 2 1 1 1 1 1 1 1 1 2 2 2 2 2 2 3 4 6 8 9 10 10 11 11 11 10 9 7
2 2 1 1 1 1 2 1 1 1 1 1 1 0 1 1 1 1 2 2 2 2 2 2 1 1 1 2 3 3 2 2 1 1 1 2 3 3 2 1 2 2 3 2 2 1 1 1 1 1 1 1 2 2 3 3 3 3 3 2 2 2 2 1 0 0 1 1 2 2 2 2 2 3 4 6 7 7 8 9 9 10 11 11 10 9
3 2 2 2 2 2 2 2 2 2 2 2 2 1 1 1 1 1 1 1 2 2 2 1 1 1 1 1 1 1 1 1 0 0 1 1 2 3 2 1 1 2 2 2 3 3 1 0 1 1 2 2 2 3 3 3 3 3 3 3 3 2 2 1 1 0 1 2 3 3 3 2 2 2 3 4 4 3 4 4 5 7 8 9 10 10
3 3 3 3 3 3 3 3 3 3 2 2 2 2 2 2 2 2 1 1 1 1 1 1 0 0 0 0 0 1 1 1 1 1 1 1 2 2 3 2 1 1 1 2 3 3 2 1 1 1 2 2 3 3 2 2 2 2 3 3 3 3 2 1 1 0 1 1 2 3 3 2 1 2 2 2 2 1 2 2 3 3 4 4 5 7
4 4 3 3 3 3 3 3 2 2 2 3 3 3 3 2 2 2 1 1 2 1 1 0 0 0 0 0 0 0 1 1 1 2 2 1 1 2 3 2 2 2 1 1 2 2 3 2 2 2 2 2 2 2 2 2 2 2 2 3 3 3 3 2 1 1 1 1 2 2 2 2 2 1 2 1 1 1 1 1 2 2 2 1 2 3
4 3 3 3 3 2 2 1 1 2 3 3 3 3 2 2 2 2 2 2 2 2 2 2 2 2 2 2 1 1 1 1 1 1 2 1 1 1 2 3 3 3 3 2 2 2 2 2 2 2 2 2 2 2 3 3 3 2 1 2 2 3 4 3 3 2 1 1 1 2 2 2 2 2 2 2 2 2 2 1 2 2 2 2 2 2
4 3 3 2 2 1 1 2 2 3 3 3 3 2 2 2 2 2 2 2 2 3 3 3 3 3 3 3 3 2 2 2 1 1 1 1 1 1 1 2 3 3 3 2 1 1 1 2 2 2 3 2 2 2 3 3 3 2 2 2 2 3 5 4 3 1 1 1 2 2 2 2 2 2 2 2 2 2 2 2 3 3 3 2 2 2
4 3 2 2 2 2 3 3 3 3 3 2 2 2 2 2 2 2 2 1 1 2 2 2 2 2 2 2 3 3 3 2 2 1 1 1 2 1 1 1 2 3 3 2 1 1 1 1 2 3 3 2 2 2 3 3 3 2 2 2 1 1 2 3 3 2 1 1 1 1 1 2 2 2 2 2 2 2 2 3 4 5 4 3 2 2
3 2 2 2 2 2 3 2 2 2 3 3 2 2 2 2 2 2 3 2 1 1 1 1 2 3 3 2 2 3 4 3 2 2 1 0 2 2 1 1 1 2 3 2 2 1 0 1 2 2 2 2 2 2 3 3 3 2 2 2 2 2 2 3 2 2 2 3 2 2 1 1 1 2 2 2 2 2 2 2 2 2 2 1 1 1
3 3 2 2 2 2 2 2 2 3 3 3 3 2 2 2 2 2 3 2 2 1 1 1 2 2 2 2 2 3 3 3 3 2 2 2 1 1 2 1 1 0 1 2 2 2 2 2 2 1 1 1 1 2 3 3 3 3 3 2 3 3 4 3 2 2 3 3 3 3 2 1 1 1 1 2 2 2 2 1 2 2 2 1 1 1
3 3 2 2 2 3 3 3 3 3 3 2 2 2 2 2 2 2 3 3 2 2 1 1 2 2 0 1 1 2 2 3 3 3 2 2 3 2 1 1 1 1 1 1 2 2 3 2 2 1 1 0 1 2 4 3 3 3 3 3 2 2 3 3 3 3 3 3 3 3 2 1 0 0 1 2 2 2 2 2 2 2 2 2 1 2
3 3 3 2 2 3 3 3 3 3 3 2 2 2 2 2 2 2 2 2 2 2 2 2 2 2 2 1 1 1 1 2 3 3 3 2 2 2 2 1 1 1 2 2 2 2 3 3 3 2 2 1 2 3 3 3 3 3 3 2 2 2 2 3 3 3 2 2 2 2 1 1 1 0 1 2 2 2 2 2 2 3 3 2 2 2
3 3 3 3 3 3 3 3 3 3 3 2 2 2 2 3 3 3 2 2 2 2 2 2 2 2 2 2 2 2 1 1 2 2 3 2 2 2 2 1 1 1 1 2 2 3 3 3 3 4 3 3 3 3 3 2 2 2 2 2 2 2 3 3 3 2 2 2 2 2 1 0 1 1 1 1 2 2 2 3 3 2 2 2 2 3
4 4 4 3 3 3 3 3 3 3 3 3 2 2 2 3 4 4 3 3 3 3 3 2 2 2 2 1 2 2 2 2 1 2 2 2 1 1 1 2 2 1 2 2 2 2 2 3 4 5 5 5 4 4 4 3 2 1 1 1 1 2 3 4 3 3 2 2 2 2 1 1 1 1 1 1 2 2 3 3 3 3 2 2 2 3
3 4 4 4 4 4 4 4 4 4 3 3 3 3 2 3 3 3 2 3 3 3 3 3 3 2 2 2 2 2 2 1 1 1 2 1 1 0 1 1 2 2 2 2 3 3 3 2 2 4 6 7 7 5 4 3 2 1 1 1 1 2 2 3 3 3 2 2 2 2 1 1 1 1 1 1 1 2 3 3 3 3 2 2 2 3
4 3 4 4 4 4 4 4 4 4 4 4 3 3 3 3 3 2 2 2 2 3 3 3 3 3 2 2 2 2 2 2 2 2 2 1 1 1 1 1 2 2 2 3 3 3 3 3 3 3 3 7 8 8 4 3 1 1 1 2 1 1 1 2 3 3 2 2 2 1 1 1 1 1 1 1 1 2 2 3 3 3 2 2 2 2
Wind_Direction
0 282 304 341 57 77 35 4 33 64 66 42 24 17 16 23 20 14 12 18 19 17 9 -0 354 350 348 344 341 338 337 336 334 329 310 259 204 182 170 165 161 156 152 147 141 135 129 121 113 105 94 82 71 60 49 40 30 20 8 357 354 7 58 80 81 77 70 67 66 66 66 66 67 69 72 77 82 85 88 89 91 92 93 94 96 97
348 343 330 10 49 80 95 342 19 76 110 106 83 27 34 29 14 358 358 7 11 12 8 357 351 347 343 338 335 333 332 331 330 326 317 280 225 193 176 171 166 161 156 151 146 139 132 124 118 110 102 92 82 72 62 53 45 36 27 21 22 34 64 80 84 83 80 78 77 75 75 74 73 72 73 75 77 80 82 84 86 89 91 94 96 98
0 348 324 4 41 77 130 240 287 1 139 151 160 150 111 92 55 354 343 356 1 4 6 356 347 341 336 330 330 330 329 327 326 323 319 293 244 203 181 174 168 163 159 155 149 142 134 127 121 115 109 100 91 82 73 64 57 51 46 44 48 57 70 80 85 87 87 87 86 85 85 84 83 81 79 78 79 80 81 83 85 88 92 95 97 99
81 305 291 335 11 52 167 208 255 289 293 286 231 177 148 140 139 154 314 355 356 352 348 344 339 334 329 325 325 326 327 325 323 321 319 305 272 219 187 176 169 166 163 158 152 145 137 130 125 119 113 106 99 91 82 74 68 63 61 61 64 70 77 83 88 92 94 93 93 92 92 92 91 89 86 84 82 81 81 82 84 86 89 91 94 96
214 218 241 292 320 301 277 288 324 334 339 338 326 296 197 154 144 133 4 18 6 350 332 327 320 314 313 316 321 324 326 324 321 318 315 309 290 245 201 181 172 167 164 160 154 147 140 134 129 123 118 111 103 96 88 82 77 73 71 70 72 76 83 89 94 97 100 99 98 97 96 96 96 95 93 90 88 85 83 82 81 81 81 82 84 86
200 209 202 169 212 264 305 331 342 349 344 331 323 322 346 25 44 44 29 23 8 348 324 311 295 282 281 297 318 326 327 325 321 316 312 308 295 267 221 188 175 168 164 160 155 148 141 137 132 126 120 112 105 99 94 89 85 82 80 78 77 79 83 88 94 99 102 102 102 101 100 100 100 100 100 98 96 93 90 87 84 81 79 77 76 75
155 157 119 98 1 302 322 318 312 280 187 200 344 355 13 20 32 43 54 40 8 336 316 298 281 267 266 299 324 331 330 327 322 317 311 307 296 274 232 194 178 169 164 160 155 149 143 138 133 126 118 111 105 101 98 94 91 89 88 86 84 83 83 85 90 94 98 101 101 102 102 103 103 104 105 105 105 104 102 101 98 94 90 84 78 70
120 101 59 40 6 344 338 309 278 247 190 131 86 29 355 2 20 49 82 72 37 351 327 312 299 286 285 329 338 338 333 329 326 321 314 309 297 274 233 195 178 169 163 159 154 149 143 137 130 123 115 108 104 101 99 96 94 93 92 92 90 88 86 84 85 87 90 93 94 95 96 95 96 96 96 98 100 104 107 110 109 105 103 94 84 72
103 85 14 19 27 18 345 331 291 218 218 120 107 89 2 354 357 13 49 53 37 5 341 333 324 319 318 343 347 343 338 336 335 332 327 320 304 275 230 192 176 167 162 157 152 146 140 133 126 118 111 106 102 100 98 95 93 92 93 95 96 95 93 90 87 86 85 86 86 86 85 84 81 78 78 75 76 79 84 88 90 91 90 84 77 67
103 113 151 235 180 144 191 273 305 336 292 125 130 135 139 88 19 2 1 1 354 345 352 351 336 324 320 339 347 347 341 340 342 344 345 345 338 318 230 181 168 162 156 152 147 141 135 129 121 115 109 106 103 101 98 95 93 93 94 97 99 100 99 97 94 92 89 88 86 84 83 80 76 73 70 65 62 60 59 59 60 61 61 59 55 49
122 141 162 194 185 159 170 202 281 326 346 51 69 75 87 105 95 46 350 330 329 336 344 345 335 327 324 336 341 343 341 341 346 350 351 353 352 353 12 121 140 144 144 141 138 133 128 123 118 113 110 108 106 104 102 99 97 97 97 99 101 103 103 102 100 99 96 94 92 89 87 84 81 77 73 67 62 57 52 50 48 46 44 40 36 30
134 141 145 146 136 122 146 1 339 349 14 44 34 11 357 49 101 115 1 306 321 333 336 325 322 324 335 331 332 333 337 341 347 352 354 356 358 0 6 50 102 120 128 127 124 122 120 117 115 112 112 111 111 109 107 105 105 105 105 105 105 105 105 106 105 104 103 101 99 96 93 91 87 83 80 73 67 59 53 47 43 39 34 29 22 14
108 108 102 86 71 50 37 21 10 13 32 67 101 264 280 311 88 110 132 236 313 329 330 318 313 311 346 336 328 327 328 330 338 351 2 3 2 359 352 10 51 85 104 108 110 112 115 114 113 113 114 115 115 114 114 114 114 115 115 114 113 112 111 111 111 110 108 106 103 101 98 95 92 89 86 80 72 63 54 46 39 32 26 19 10 1
88 87 86 81 77 72 159 125 103 1 282 175 186 194 193 123 85 82 89 61 339 325 323 298 292 294 331 349 339 328 318 316 327 350 12 11 6 357 345 356 27 63 83 91 96 103 110 111 112 114 117 118 118 119 121 121 122 123 123 122 120 119 117 117 115 114 111 109 106 103 100 98 96 93 89 84 76 65 55 44 35 27 19 10 1 352
126 123 121 139 165 190 186 166 180 200 209 189 168 137 104 80 73 74 81 29 326 320 324 297 291 294 320 348 348 340 327 322 338 1 11 8 3 358 347 355 22 56 74 85 89 93 100 105 110 116 120 123 125 127 130 130 131 131 130 128 126 125 124 122 121 119 116 114 111 109 106 106 105 102 98 91 81 68 56 43 32 22 12 3 354 345
150 144 151 162 178 200 199 172 180 194 200 174 126 105 101 96 89 89 106 166 286 327 341 328 325 322 318 42 27 8 349 344 357 14 17 4 358 356 354 4 29 54 64 74 77 78 83 96 107 116 124 132 136 139 142 141 141 140 138 136 135 134 133 133 132 131 129 128 127 126 126 127 129 128 124 114 99 81 62 44 27 14 3 353 344 337
148 145 148 156 183 229 239 191 180 177 165 132 103 100 112 127 133 140 150 159 161 81 0 5 335 320 306 328 22 21 5 357 358 12 25 4 353 350 355 12 37 53 60 63 62 63 70 89 104 117 132 144 148 150 152 153 153 152 150 149 148 148 148 149 150 150 150 150 151 152 155 160 163 165 163 156 145 126 92 38 7 351 343 336 331 327
143 141 142 162 190 214 220 195 162 136 116 112 95 81 80 94 113 133 148 150 155 171 204 189 195 226 279 300 332 358 6 358 356 4 19 358 347 346 353 14 35 45 49 48 41 35 38 53 89 140 152 161 163 164 166 168 169 168 167 166 165 166 167 168 169 170 171 172 174 176 180 185 189 191 190 188 188 191 205 248 286 303 311 315 316 317
144 144 151 170 180 183 170 164 153 145 143 150 133 107 74 61 62 77 125 157 172 182 193 203 210 218 233 263 303 343 358 349 358 13 16 343 339 345 351 8 28 39 33 29 22 17 12 6 2 120 171 178 180 182 184 186 188 188 187 186 185 185 186 186 187 187 188 189 191 193 196 201 205 207 208 209 212 218 227 243 258 273 285 294 301 306
156 163 168 162 158 155 154 154 150 149 154 150 138 125 124 112 108 128 191 193 192 188 186 200 215 226 228 259 308 337 349 352 15 38 20 329 331 343 350 2 22 42 3 341 346 358 0 353 344 325 247 209 200 197 198 200 202 204 203 202 201 200 200 200 200 200 200 201 202 204 207 210 214 217 220 222 225 230 237 245 254 263 271 280 288 295
167 184 185 159 148 149 161 161 149 108 103 115 115 116 130 138 169 199 207 196 192 191 192 211 220 224 212 258 307 331 349 2 26 52 43 335 328 339 354 1 14 21 287 292 312 342 351 340 333 327 322 268 231 217 211 211 212 213 213 212 210 209 208 208 208 208 208 209 210 212 214 216 219 223 225 229 233 238 243 249 255 261 267 273 279 286
164 176 171 149 141 143 150 155 147 93 87 114 125 140 166 177 199 216 213 193 188 192 201 212 216 213 188 243 287 319 356 10 37 65 68 345 320 327 357 358 4 357 272 284 306 333 342 328 315 307 309 293 273 252 237 229 225 223 223 220 217 215 213 213 213 213 213 214 216 217 219 221 223 226 229 232 236 241 246 251 257 261 265 269 274 279
141 145 142 135 131 131 136 146 156 146 96 135 154 170 178 181 191 201 199 183 174 170 169 178 186 192 190 226 272 328 15 9 19 50 77 328 301 315 352 356 0 343 278 294 320 337 337 322 308 301 304 295 288 280 269 258 251 245 239 234 229 224 219 217 216 216 217 218 220 221 223 224 226 228 231 234 238 243 247 252 256 261 265 268 271 275
122 127 134 136 137 137 140 152 164 172 146 147 153 160 164 158 154 150 143 134 129 126 124 101 58 21 0 0 14 17 18 12 17 38 74 279 288 316 350 3 357 328 286 307 336 345 335 317 307 306 314 299 292 286 281 277 272 266 261 256 249 242 233 226 223 221 221 221 223 224 225 227 229 231 234 237 240 244 247 251 255 260 264 267 269 272
121 130 141 151 157 158 160 163 166 164 155 143 133 127 122 111 102 93 81 81 88 95 93 66 35 6 350 1 6 6 1 6 25 49 75 339 302 316 349 6 2 332 292 307 333 348 334 313 308 315 325 307 299 293 288 283 279 276 274 271 268 263 257 246 236 229 226 225 225 225 227 229 231 234 237 240 243 245 248 250 254 257 262 265 267 269
130 139 149 156 159 160 161 161 159 155 152 145 138 129 118 106 96 84 67 60 68 80 82 63 30 348 340 349 343 335 333 354 21 50 81 50 318 316 342 4 5 337 299 302 316 334 327 302 302 313 331 325 318 311 301 294 287 282 279 277 276 275 273 267 259 248 238 232 228 226 227 229 233 236 240 243 245 247 248 250 252 255 259 263 265 268
130 136 141 143 144 145 146 144 142 141 143 143 143 140 129 111 98 88 72 54 69 86 92 87 37 337 339 336 320 307 313 338 1 36 80 67 339 314 326 347 350 329 302 295 294 294 285 284 293 309 331 343 342 332 316 307 298 291 285 282 280 278 278 278 275 269 258 245 236 230 228 229 233 237 241 244 247 248 249 249 251 254 258 261 265 270
120 122 121 119 116 115 114 115 118 122 126 131 136 138 134 120 116 127 175 177 127 97 101 112 118 333 326 310 300 297 309 322 325 330 77 74 349 295 306 327 334 327 303 294 291 292 297 293 305 319 327 332 337 335 327 322 314 304 297 292 288 284 282 281 281 279 274 263 252 241 233 232 234 238 242 246 248 249 249 249 251 253 256 258 261 296
94 94 92 88 84 80 76 75 82 91 96 98 104 114 125 129 144 163 180 157 127 109 110 126 137 151 245 306 311 315 323 319 311 307 80 84 288 280 303 335 344 342 322 312 314 321 329 315 313 315 311 316 322 329 330 335 332 325 320 311 303 297 291 288 286 285 285 279 271 259 248 242 240 241 244 247 249 250 250 250 250 250 249 232 178 134
66 68 66 61 58 56 55 52 56 65 75 76 76 77 89 113 142 156 157 139 126 120 128 138 143 140 115 27 355 338 327 322 319 337 87 109 235 282 321 348 350 347 346 356 347 332 321 312 303 294 288 305 311 315 320 339 346 347 342 330 321 312 303 299 296 295 294 293 289 282 272 262 255 251 249 250 250 251 251 250 248 244 198 142 134 147
63 63 54 39 36 38 45 48 49 52 59 62 61 59 61 77 102 123 130 128 127 129 138 144 146 140 127 104 68 319 299 302 311 0 92 116 172 272 349 357 341 335 344 48 54 336 309 310 309 308 308 314 314 314 318 339 352 357 352 345 335 325 321 317 314 312 310 307 304 300 293 284 275 268 261 257 255 253 252 250 247 239 167 150 156 180
92 81 70 41 29 32 42 46 47 46 48 47 45 44 47 56 70 88 108 119 124 127 131 134 136 136 135 140 164 216 262 276 277 235 104 110 110 85 95 71 0 337 336 42 104 140 238 292 304 314 328 326 321 318 321 342 1 7 4 359 344 331 336 340 338 334 330 323 317 312 307 300 293 285 277 269 263 259 255 252 248 238 186 168 175 194
97 82 66 46 38 37 42 41 42 43 45 40 35 32 35 43 53 67 83 98 111 119 123 126 127 127 129 142 188 233 259 268 263 227 116 112 110 105 84 85 51 2 349 19 55 111 168 245 289 309 321 319 317 315 320 338 1 16 19 11 344 327 338 353 354 349 343 335 330 324 319 313 307 300 292 284 276 268 262 257 251 242 217 186 180 192
97 85 68 52 43 39 36 34 36 39 43 36 30 27 26 34 44 53 61 70 87 108 124 130 133 136 135 136 216 272 277 275 277 279 102 110 117 124 112 102 98 69 31 21 25 35 87 252 292 309 314 314 312 311 313 325 344 0 18 21 336 315 328 352 356 349 340 342 338 331 327 323 318 311 304 296 288 280 272 264 256 249 238 214 189 181
103 94 77 62 55 50 41 31 29 30 31 22 17 19 26 33 39 44 48 53 63 85 114 129 137 142 144 148 170 250 276 273 281 304 95 114 122 125 117 150 154 136 99 66 42 30 351 304 303 312 318 317 315 310 308 310 320 328 336 343 273 285 306 337 342 338 334 336 328 320 320 323 319 313 306 299 294 287 279 271 263 256 248 234 215 191
121 127 124 113 117 131 138 109 31 0 310 288 301 353 36 41 41 41 39 41 49 60 79 98 123 139 148 152 163 192 241 257 275 318 80 119 126 128 132 184 174 150 128 123 117 113 37 312 316 326 338 319 309 306 308 315 325 332 339 339 320 295 288 304 326 335 333 323 312 304 306 310 307 302 297 295 292 288 283 276 270 264 257 248 236 220
151 169 193 192 184 178 183 191 201 212 222 236 233 207 113 73 56 44 36 36 39 47 59 64 69 93 132 151 164 183 211 231 272 351 48 111 122 127 139 178 176 159 145 148 150 147 112 353 337 336 337 278 275 287 306 324 336 343 340 335 328 318 308 319 0 30 320 290 285 285 289 293 296 296 296 296 295 293 288 283 278 273 268 263 254 241
175 189 202 203 198 190 186 194 203 208 207 205 191 165 132 108 87 65 49 45 46 48 55 54 45 38 47 111 161 183 192 178 136 52 56 102 116 121 130 149 179 182 163 155 150 144 126 100 326 312 297 272 266 274 295 320 330 329 320 318 315 312 312 325 347 0 272 277 279 282 282 287 297 304 305 307 311 312 301 295 289 284 278 274 267 257
189 197 203 201 197 192 190 198 203 202 190 170 148 129 116 106 95 85 74 74 71 70 68 69 56 10 346 309 216 188 155 141 134 126 111 114 119 124 130 142 170 193 171 141 137 137 135 153 185 224 257 276 284 289 301 306 304 304 310 320 322 320 315 324 332 295 260 276 283 287 288 299 315 319 308 313 317 309 288 287 283 280 278 282 278 270
196 201 205 201 196 191 193 196 190 169 138 122 111 103 96 89 81 72 70 82 81 78 78 85 85 1 291 318 346 29 70 106 126 131 133 143 142 138 138 150 158 160 140 119 119 128 138 157 179 198 210 239 271 289 298 290 280 288 329 333 324 315 314 319 318 309 286 274 277 283 288 299 304 301 287 283 267 249 241 253 261 262 255 241 260 273
197 202 206 202 196 192 192 164 128 115 113 110 103 93 85 81 71 57 42 41 37 30 20 18 14 8 354 1 14 28 38 40 81 118 138 166 177 159 144 149 147 142 134 122 117 126 145 160 180 203 211 218 244 267 275 270 266 269 301 294 285 285 295 300 307 320 329 303 281 273 278 288 291 287 275 266 251 238 231 241 258 266 265 225 204 205
198 200 195 181 171 160 135 103 98 100 104 104 107 111 113 108 100 87 61 34 18 12 14 22 23 15 358 344 344 355 17 10 14 64 132 158 169 171 155 151 145 138 129 121 123 148 175 176 189 203 208 205 224 257 270 268 266 260 250 253 277 295 302 298 303 329 338 306 290 279 272 278 281 281 279 277 270 262 252 244 250 257 262 248 217 197
196 188 157 136 126 123 115 108 106 107 108 112 120 130 128 119 114 109 103 87 45 24 24 38 51 51 27 344 331 329 334 333 339 355 83 156 173 184 180 154 145 140 132 126 135 187 219 206 208 209 202 180 189 231 264 274 276 268 244 231 254 329 315 301 305 320 327 305 291 278 263 261 265 269 274 272 272 271 268 259 258 258 257 248 231 215
175 143 112 112 113 112 108 111 120 132 137 143 147 144 124 117 111 108 106 106 93 68 49 55 67 69 57 6 329 321 321 322 331 345 7 167 176 173 145 126 131 139 140 142 152 168 186 238 238 228 198 167 180 221 252 267 274 272 258 225 201 200 230 266 292 317 327 317 308 290 261 255 263 272 278 273 271 271 273 269 269 268 263 247 226 217
134 120 111 120 124 126 128 139 145 147 148 151 147 139 123 121 114 111 113 113 106 95 94 100 81 67 40 344 323 320 321 322 326 335 351 5 29 92 115 118 123 154 158 163 164 165 169 219 238 236 157 140 184 225 246 259 269 275 270 245 226 222 232 251 271 290 297 299 295 287 271 262 273 294 297 291 286 281 273 268 268 268 268 261 237 222
127 126 129 132 140 147 155 156 150 145 144 146 141 132 120 115 111 110 115 119 120 125 157 135 112 102 97 295 307 322 329 325 325 327 336 352 2 12 50 100 149 192 216 211 196 186 185 199 198 176 115 96 252 245 240 244 256 269 278 271 263 260 265 270 266 259 257 269 276 279 277 288 336 305 286 287 287 286 277 257 246 244 247 241 233 225
146 147 148 147 150 152 153 147 144 144 148 151 148 139 126 121 114 111 109 122 131 139 145 131 126 133 164 197 225 265 304 307 307 310 314 327 344 352 350 343 287 234 221 226 227 225 220 207 191 174 167 237 271 269 255 238 235 245 264 272 278 280 279 274 264 251 238 248 258 268 296 0 14 307 271 281 288 289 286 269 251 240 235 230 226 226
165 161 159 156 154 151 147 146 149 154 160 165 162 152 144 145 143 140 129 141 144 138 130 132 140 156 177 194 200 205 215 247 271 284 295 306 320 333 341 336 321 294 267 256 252 249 242 226 208 197 195 213 243 263 271 253 228 220 237 252 263 268 269 270 267 258 244 245 246 245 232 227 243 255 271 290 295 295 292 288 277 263 245 232 226 226
174 169 165 162 161 161 161 163 165 170 174 175 170 163 159 168 168 165 155 153 148 144 144 158 171 184 195 207 211 214 217 227 242 260 272 284 302 324 342 343 341 337 335 327 319 304 280 251 229 217 210 208 222 244 266 266 249 223 225 235 244 253 263 270 271 268 255 249 246 237 215 214 212 210 206 267 283 285 288 290 288 281 266 246 233 229
180 175 169 168 170 172 171 172 175 179 184 183 179 173 164 173 179 178 162 149 146 150 164 179 189 198 208 211 214 215 219 221 235 254 261 258 266 345 0 0 0 1 3 0 358 354 347 324 276 243 224 213 213 222 246 259 268 274 273 256 245 242 255 267 271 271 261 260 257 248 232 239 217 173 146 207 262 276 283 286 285 282 277 262 245 237
181 177 172 173 176 178 176 175 178 183 187 187 185 178 166 168 177 182 169 149 151 161 179 189 195 202 213 216 216 215 215 214 225 242 251 227 170 115 69 46 39 34 27 14 7 5 4 357 339 308 259 220 211 209 214 220 230 282 303 281 265 250 250 262 269 276 282 284 281 272 252 257 240 177 147 166 234 272 283 282 280 279 281 276 260 249